GFSNW_prec_precacc24_102.txt.gz
Total_Precipitation_Accumulation
0.13 0.15 0.14 0.12 0.16 0.32 0.65 0.78 0.63 0.22 0.12 0.27 0.13 0.03 0.00 0.00 0.00 0.00 0.00 0.00 0.00 0.00 0.00 0.01 0.01 0.01 0.00 0.00 0.00 0.00 0.00 0.00 0.00 0.00 0.01 0.01 0.01 0.00 0.00 0.00 0.00 0.00 0.00 0.00
0.10 0.11 0.14 0.19 0.20 0.42 0.65 0.95 0.41 0.38 0.43 0.35 0.12 0.03 0.01 0.00 0.00 0.00 0.00 0.00 0.00 0.00 0.00 0.01 0.01 0.01 0.00 0.00 0.00 0.00 0.02 0.04 0.01 0.00 0.00 0.00 0.00 0.00 0.00 0.00 0.00 0.00 0.01 0.00
0.13 0.11 0.13 0.19 0.32 0.59 1.08 1.09 0.62 0.59 0.70 0.26 0.09 0.15 0.09 0.02 0.00 0.00 0.00 0.00 0.00 0.00 0.00 0.01 0.03 0.04 0.02 0.01 0.01 0.00 0.07 0.05 0.02 0.01 0.01 0.02 0.01 0.00 0.00 0.01 0.10 0.02 0.00 0.00
0.13 0.14 0.15 0.22 0.35 0.68 1.80 1.81 0.58 0.27 0.39 0.36 0.16 0.09 0.11 0.05 0.03 0.01 0.02 0.02 0.00 0.00 0.00 0.02 0.05 0.08 0.10 0.05 0.04 0.03 0.09 0.09 0.01 0.01 0.01 0.00 0.01 0.00 0.00 0.00 0.01 0.04 0.00 0.00
0.11 0.17 0.21 0.28 0.47 0.92 2.00 1.69 0.45 0.22 0.12 0.10 0.15 0.20 0.12 0.06 0.03 0.04 0.05 0.04 0.04 0.08 0.08 0.03 0.06 0.16 0.32 0.24 0.19 0.22 0.23 0.15 0.03 0.02 0.00 0.00 0.00 0.00 0.00 0.00 0.00 0.00 0.00 0.00
0.12 0.16 0.23 0.32 0.51 1.24 2.17 1.14 0.35 0.34 0.24 0.09 0.14 0.16 0.11 0.05 0.07 0.05 0.02 0.07 0.19 0.13 0.11 0.19 0.13 0.14 0.19 0.28 0.40 0.44 0.48 0.33 0.21 0.08 0.02 0.04 0.04 0.00 0.00 0.00 0.00 0.00 0.00 0.00
0.09 0.10 0.17 0.29 0.44 0.98 1.55 0.76 0.36 0.52 0.43 0.14 0.08 0.04 0.05 0.04 0.04 0.07 0.07 0.08 0.13 0.08 0.11 0.17 0.13 0.10 0.10 0.04 0.07 0.22 0.39 0.43 0.46 0.21 0.11 0.15 0.03 0.00 0.00 0.00 0.00 0.00 0.00 0.00
0.12 0.12 0.15 0.21 0.31 0.53 1.14 1.10 0.59 0.40 0.25 0.14 0.10 0.06 0.03 0.02 0.02 0.03 0.04 0.02 0.05 0.16 0.18 0.38 0.34 0.27 0.22 0.11 0.02 0.03 0.10 0.25 0.39 0.27 0.16 0.09 0.01 0.01 0.01 0.02 0.02 0.02 0.03 0.02
0.11 0.14 0.17 0.19 0.25 0.37 0.90 1.14 0.79 0.56 0.51 0.16 0.07 0.06 0.03 0.05 0.06 0.07 0.04 0.01 0.06 0.29 0.32 0.37 0.35 0.34 0.38 0.26 0.28 0.09 0.04 0.13 0.33 0.40 0.21 0.03 0.02 0.02 0.02 0.02 0.11 0.10 0.06 0.06
0.18 0.17 0.16 0.19 0.22 0.33 0.75 1.20 0.78 0.93 0.81 0.13 0.09 0.22 0.11 0.04 0.07 0.14 0.11 0.13 0.12 0.23 0.40 0.28 0.15 0.14 0.15 0.18 0.31 0.50 0.26 0.26 0.27 0.22 0.33 0.08 0.01 0.03 0.04 0.12 0.16 0.07 0.02 0.01
0.18 0.18 0.19 0.21 0.25 0.30 0.68 0.97 0.71 0.75 0.90 0.24 0.02 0.08 0.10 0.13 0.18 0.21 0.25 0.35 0.21 0.27 0.31 0.17 0.09 0.08 0.04 0.03 0.08 0.37 0.41 0.57 0.43 0.30 0.33 0.10 0.03 0.16 0.23 0.23 0.10 0.07 0.03 0.01
0.18 0.21 0.24 0.22 0.27 0.32 0.63 1.00 0.62 0.58 0.99 0.58 0.08 0.02 0.01 0.01 0.05 0.10 0.12 0.25 0.26 0.40 0.31 0.26 0.20 0.14 0.09 0.04 0.04 0.05 0.13 0.09 0.19 0.32 0.23 0.06 0.03 0.09 0.12 0.10 0.07 0.10 0.08 0.04
0.19 0.19 0.23 0.33 0.31 0.35 0.63 0.94 0.50 0.77 1.58 1.07 0.31 0.05 0.01 0.06 0.01 0.07 0.14 0.03 0.02 0.12 0.25 0.50 0.36 0.20 0.12 0.12 0.05 0.06 0.03 0.03 0.03 0.05 0.01 0.04 0.08 0.09 0.06 0.07 0.02 0.03 0.02 0.07
0.20 0.22 0.23 0.30 0.43 0.44 0.65 0.98 0.78 0.64 1.32 0.84 0.26 0.02 0.01 0.03 0.06 0.04 0.11 0.04 0.10 0.13 0.29 0.63 0.47 0.21 0.11 0.06 0.08 0.05 0.03 0.06 0.06 0.03 0.02 0.00 0.00 0.00 0.02 0.01 0.00 0.01 0.04 0.08
0.21 0.22 0.25 0.35 0.44 0.55 0.91 0.95 0.80 0.43 0.40 0.42 0.18 0.06 0.02 0.02 0.05 0.07 0.09 0.14 0.22 0.26 0.40 0.51 0.28 0.13 0.15 0.09 0.05 0.01 0.00 0.00 0.02 0.03 0.04 0.00 0.00 0.00 0.00 0.00 0.00 0.01 0.04 0.18
0.22 0.27 0.27 0.40 0.57 0.86 1.94 2.68 1.52 0.37 0.24 0.77 0.28 0.07 0.04 0.05 0.02 0.07 0.06 0.11 0.24 0.38 0.65 0.35 0.18 0.10 0.30 0.20 0.04 0.00 0.00 0.00 0.00 0.00 0.00 0.00 0.00 0.00 0.00 0.01 0.01 0.02 0.03 0.04
0.25 0.28 0.39 0.58 0.92 1.49 1.85 1.15 0.75 0.40 0.48 1.21 0.62 0.11 0.07 0.12 0.12 0.07 0.10 0.10 0.27 0.43 0.88 0.62 0.16 0.09 0.30 0.24 0.06 0.00 0.01 0.00 0.00 0.00 0.01 0.00 0.00 0.01 0.02 0.01 0.02 0.04 0.04 0.06
0.34 0.47 0.70 0.93 1.46 1.38 0.63 0.14 0.04 0.10 0.72 0.96 0.71 0.31 0.21 0.20 0.18 0.14 0.08 0.13 0.27 0.42 0.47 0.42 0.31 0.12 0.18 0.16 0.01 0.00 0.00 0.00 0.00 0.00 0.01 0.02 0.03 0.02 0.03 0.02 0.03 0.03 0.05 0.08
0.70 0.99 1.72 2.85 2.73 1.62 0.64 0.23 0.23 0.18 0.53 0.51 0.29 0.43 0.34 0.29 0.22 0.23 0.21 0.16 0.29 0.32 0.28 0.19 0.28 0.31 0.17 0.03 0.00 0.00 0.00 0.00 0.00 0.00 0.01 0.01 0.03 0.04 0.04 0.02 0.02 0.03 0.04 0.02
1.31 2.52 3.54 3.38 1.46 0.28 0.63 1.37 1.14 0.81 0.48 0.27 0.07 0.15 0.31 0.30 0.25 0.34 0.65 0.31 0.21 0.23 0.10 0.12 0.23 0.17 0.11 0.08 0.14 0.02 0.00 0.00 0.00 0.00 0.00 0.00 0.00 0.01 0.01 0.01 0.01 0.02 0.02 0.01
1.54 1.90 1.45 1.14 0.39 0.37 0.75 1.04 0.67 0.44 0.24 0.16 0.06 0.07 0.16 0.11 0.18 0.30 0.43 0.76 0.25 0.11 0.07 0.10 0.16 0.04 0.10 0.18 0.16 0.08 0.01 0.00 0.00 0.00 0.00 0.00 0.00 0.00 0.00 0.00 0.00 0.00 0.00 0.00
0.51 0.51 0.57 0.49 0.59 0.54 0.45 0.27 0.24 0.07 0.01 0.02 0.07 0.07 0.17 0.17 0.22 0.44 0.37 0.33 0.50 0.18 0.18 0.16 0.07 0.09 0.01 0.02 0.04 0.08 0.10 0.06 0.04 0.02 0.01 0.00 0.00 0.00 0.00 0.00 0.00 0.00 0.01 0.03
0.02 0.03 0.22 0.30 0.30 0.15 0.15 0.08 0.05 0.02 0.02 0.01 0.03 0.10 0.14 0.18 0.13 0.35 0.42 0.25 0.18 0.21 0.25 0.14 0.03 0.04 0.05 0.01 0.00 0.01 0.06 0.12 0.04 0.02 0.01 0.01 0.01 0.01 0.01 0.01 0.02 0.03 0.08 0.16
0.10 0.09 0.14 0.09 0.06 0.13 0.12 0.06 0.03 0.04 0.04 0.02 0.02 0.06 0.23 0.27 0.13 0.14 0.26 0.27 0.17 0.27 0.18 0.05 0.05 0.03 0.04 0.05 0.06 0.02 0.01 0.12 0.37 0.20 0.04 0.05 0.06 0.06 0.07 0.10 0.09 0.09 0.20 0.35
0.00 0.00 0.04 0.09 0.17 0.18 0.16 0.09 0.06 0.08 0.05 0.05 0.16 0.22 0.36 0.41 0.33 0.20 0.19 0.38 0.39 0.20 0.15 0.08 0.08 0.06 0.06 0.06 0.08 0.10 0.11 0.13 0.24 0.43 0.45 0.29 0.24 0.28 0.32 0.32 0.34 0.29 0.36 0.41
0.00 0.04 0.09 0.11 0.13 0.10 0.09 0.11 0.10 0.12 0.11 0.16 0.39 0.57 0.53 0.56 0.46 0.48 0.27 0.25 0.16 0.13 0.09 0.11 0.09 0.10 0.14 0.15 0.16 0.20 0.23 0.26 0.34 0.46 0.57 0.63 0.55 0.50 0.60 0.69 0.61 0.59 0.48 0.51
0.01 0.05 0.08 0.10 0.08 0.10 0.12 0.13 0.12 0.15 0.25 0.37 0.44 0.59 0.48 0.46 0.31 0.21 0.12 0.13 0.11 0.09 0.11 0.14 0.16 0.19 0.25 0.28 0.29 0.35 0.32 0.32 0.42 0.54 0.53 0.62 0.66 0.58 0.41 0.49 0.63 0.55 0.50 0.43

GFSNW_prec_precacc24_105.txt.gz
Total_Precipitation_Accumulation
0.12 0.14 0.14 0.11 0.13 0.24 0.41 0.46 0.45 0.20 0.17 0.30 0.17 0.05 0.00 0.00 0.00 0.00 0.00 0.00 0.00 0.00 0.00 0.00 0.00 0.01 0.00 0.00 0.00 0.00 0.00 0.00 0.00 0.00 0.01 0.03 0.04 0.03 0.00 0.00 0.00 0.00 0.01 0.00
0.09 0.11 0.14 0.19 0.17 0.29 0.37 0.60 0.28 0.36 0.49 0.51 0.22 0.04 0.01 0.00 0.00 0.00 0.00 0.00 0.00 0.00 0.00 0.01 0.00 0.00 0.00 0.00 0.00 0.00 0.02 0.04 0.01 0.00 0.00 0.00 0.01 0.02 0.05 0.02 0.00 0.00 0.02 0.01
0.12 0.11 0.13 0.20 0.31 0.47 0.76 0.72 0.48 0.52 0.68 0.29 0.18 0.23 0.18 0.08 0.01 0.00 0.00 0.00 0.00 0.00 0.00 0.00 0.00 0.00 0.01 0.01 0.01 0.00 0.07 0.05 0.03 0.02 0.01 0.02 0.01 0.01 0.05 0.09 0.22 0.10 0.02 0.00
0.13 0.13 0.14 0.21 0.34 0.62 1.40 1.35 0.50 0.26 0.35 0.33 0.16 0.10 0.17 0.19 0.13 0.04 0.02 0.02 0.00 0.00 0.00 0.00 0.00 0.01 0.07 0.05 0.04 0.03 0.09 0.09 0.01 0.01 0.01 0.00 0.01 0.00 0.00 0.00 0.04 0.25 0.12 0.01
0.11 0.17 0.21 0.27 0.44 0.88 1.51 1.27 0.43 0.29 0.15 0.14 0.22 0.23 0.12 0.07 0.07 0.14 0.12 0.07 0.04 0.08 0.06 0.01 0.01 0.04 0.10 0.20 0.19 0.23 0.23 0.15 0.03 0.02 0.00 0.00 0.00 0.00 0.00 0.00 0.00 0.00 0.00 0.00
0.09 0.13 0.22 0.31 0.51 1.10 1.71 0.79 0.33 0.43 0.34 0.18 0.20 0.21 0.13 0.06 0.09 0.06 0.03 0.11 0.22 0.15 0.13 0.19 0.09 0.07 0.11 0.23 0.40 0.45 0.50 0.35 0.21 0.08 0.02 0.04 0.04 0.00 0.00 0.00 0.00 0.00 0.00 0.00
0.09 0.10 0.18 0.30 0.47 0.88 1.14 0.62 0.42 0.63 0.40 0.16 0.09 0.05 0.07 0.07 0.05 0.08 0.07 0.09 0.16 0.11 0.11 0.12 0.05 0.02 0.03 0.03 0.07 0.22 0.39 0.47 0.50 0.22 0.14 0.17 0.03 0.00 0.00 0.00 0.00 0.01 0.01 0.00
0.11 0.13 0.17 0.25 0.35 0.54 0.89 0.80 0.68 0.51 0.29 0.12 0.09 0.06 0.04 0.03 0.02 0.04 0.04 0.02 0.06 0.17 0.20 0.31 0.15 0.09 0.10 0.10 0.02 0.03 0.09 0.26 0.46 0.33 0.18 0.09 0.01 0.01 0.02 0.03 0.11 0.06 0.04 0.02
0.11 0.14 0.19 0.22 0.28 0.39 0.81 0.82 0.69 0.66 0.60 0.16 0.06 0.08 0.05 0.06 0.07 0.09 0.05 0.02 0.08 0.31 0.34 0.33 0.26 0.13 0.22 0.38 0.41 0.10 0.04 0.13 0.34 0.36 0.21 0.03 0.02 0.03 0.02 0.02 0.15 0.12 0.07 0.06
0.18 0.16 0.16 0.21 0.26 0.33 0.72 0.96 0.64 0.89 0.81 0.12 0.08 0.18 0.12 0.08 0.13 0.21 0.17 0.16 0.19 0.30 0.41 0.26 0.13 0.11 0.11 0.18 0.44 0.65 0.27 0.25 0.25 0.21 0.32 0.08 0.01 0.03 0.04 0.12 0.16 0.07 0.03 0.01
0.14 0.15 0.16 0.21 0.28 0.31 0.66 0.85 0.61 0.65 0.78 0.22 0.01 0.01 0.09 0.13 0.18 0.25 0.30 0.42 0.34 0.29 0.30 0.17 0.09 0.08 0.07 0.04 0.09 0.49 0.49 0.58 0.43 0.31 0.34 0.10 0.05 0.16 0.25 0.26 0.10 0.07 0.03 0.01
0.15 0.16 0.18 0.18 0.25 0.33 0.63 0.89 0.55 0.55 0.91 0.53 0.05 0.00 0.00 0.01 0.04 0.10 0.14 0.32 0.40 0.51 0.54 0.41 0.28 0.16 0.14 0.08 0.09 0.30 0.31 0.12 0.22 0.32 0.24 0.07 0.07 0.15 0.17 0.10 0.07 0.10 0.08 0.04
0.18 0.17 0.18 0.25 0.27 0.31 0.59 0.80 0.47 0.71 1.25 0.90 0.25 0.04 0.00 0.00 0.00 0.02 0.09 0.03 0.03 0.13 0.36 0.57 0.43 0.27 0.18 0.20 0.15 0.28 0.28 0.14 0.25 0.19 0.06 0.09 0.11 0.08 0.07 0.07 0.02 0.03 0.02 0.07
0.20 0.21 0.20 0.21 0.35 0.38 0.54 0.87 0.76 0.51 0.89 0.65 0.21 0.01 0.00 0.00 0.01 0.02 0.06 0.03 0.09 0.12 0.26 0.53 0.45 0.23 0.12 0.07 0.12 0.08 0.17 0.25 0.24 0.15 0.12 0.05 0.04 0.01 0.01 0.01 0.00 0.00 0.04 0.09
0.23 0.22 0.24 0.28 0.34 0.46 0.72 0.90 0.78 0.33 0.29 0.39 0.19 0.05 0.01 0.00 0.04 0.07 0.05 0.13 0.20 0.24 0.38 0.49 0.28 0.13 0.15 0.09 0.05 0.01 0.00 0.01 0.04 0.08 0.14 0.07 0.01 0.00 0.00 0.00 0.00 0.01 0.04 0.18
0.27 0.28 0.25 0.32 0.44 0.68 1.79 2.47 1.39 0.33 0.21 0.82 0.27 0.06 0.03 0.04 0.02 0.07 0.06 0.10 0.22 0.38 0.55 0.30 0.15 0.09 0.29 0.22 0.04 0.00 0.00 0.00 0.00 0.00 0.01 0.00 0.00 0.00 0.00 0.00 0.01 0.01 0.03 0.04
0.29 0.29 0.31 0.42 0.75 1.38 1.67 0.87 0.43 0.25 0.46 1.34 0.65 0.10 0.06 0.12 0.13 0.08 0.11 0.11 0.26 0.43 0.77 0.42 0.12 0.07 0.28 0.27 0.07 0.00 0.01 0.00 0.00 0.00 0.01 0.00 0.00 0.01 0.02 0.01 0.02 0.04 0.04 0.06
0.36 0.38 0.48 0.73 1.32 1.30 0.61 0.14 0.07 0.09 0.73 1.01 0.77 0.31 0.20 0.20 0.18 0.15 0.09 0.13 0.26 0.43 0.41 0.27 0.14 0.07 0.15 0.16 0.01 0.00 0.00 0.00 0.00 0.00 0.01 0.03 0.03 0.02 0.04 0.03 0.03 0.03 0.05 0.08
0.67 0.82 1.54 2.84 2.84 1.71 0.62 0.20 0.25 0.23 0.57 0.57 0.32 0.43 0.35 0.29 0.24 0.25 0.21 0.16 0.30 0.31 0.25 0.15 0.12 0.14 0.16 0.02 0.00 0.00 0.00 0.00 0.00 0.00 0.01 0.02 0.03 0.04 0.04 0.03 0.02 0.03 0.04 0.02
1.52 2.67 3.68 3.37 1.43 0.27 0.68 1.57 1.37 1.08 0.64 0.34 0.09 0.15 0.31 0.30 0.23 0.40 0.72 0.30 0.19 0.19 0.08 0.07 0.13 0.07 0.10 0.06 0.09 0.02 0.00 0.00 0.00 0.00 0.00 0.00 0.00 0.01 0.01 0.01 0.01 0.02 0.02 0.01
1.77 1.98 1.43 1.06 0.36 0.39 0.88 1.16 0.78 0.54 0.31 0.16 0.06 0.07 0.17 0.13 0.19 0.28 0.38 0.69 0.22 0.11 0.05 0.07 0.06 0.04 0.05 0.09 0.11 0.06 0.01 0.00 0.00 0.00 0.00 0.00 0.00 0.00 0.00 0.00 0.00 0.00 0.00 0.00
0.53 0.51 0.57 0.49 0.63 0.64 0.53 0.31 0.23 0.09 0.02 0.02 0.07 0.08 0.18 0.20 0.26 0.42 0.27 0.28 0.48 0.17 0.17 0.16 0.06 0.04 0.01 0.02 0.04 0.08 0.10 0.06 0.03 0.02 0.01 0.00 0.00 0.00 0.00 0.00 0.00 0.00 0.01 0.02
0.03 0.06 0.24 0.32 0.35 0.20 0.18 0.10 0.06 0.02 0.02 0.01 0.03 0.10 0.13 0.17 0.13 0.32 0.29 0.18 0.17 0.16 0.23 0.16 0.06 0.04 0.05 0.01 0.00 0.01 0.06 0.12 0.04 0.02 0.01 0.01 0.01 0.01 0.01 0.01 0.02 0.02 0.03 0.06
0.20 0.18 0.18 0.12 0.05 0.11 0.10 0.05 0.03 0.04 0.03 0.01 0.03 0.05 0.17 0.20 0.09 0.09 0.19 0.25 0.18 0.15 0.10 0.06 0.05 0.03 0.04 0.05 0.06 0.02 0.01 0.12 0.37 0.20 0.04 0.05 0.05 0.06 0.08 0.10 0.09 0.07 0.13 0.24
0.03 0.00 0.03 0.08 0.14 0.14 0.14 0.08 0.06 0.08 0.05 0.03 0.07 0.10 0.22 0.26 0.23 0.12 0.11 0.21 0.36 0.17 0.08 0.07 0.07 0.05 0.05 0.05 0.08 0.09 0.11 0.13 0.24 0.43 0.44 0.27 0.22 0.24 0.25 0.25 0.27 0.25 0.32 0.38
0.00 0.04 0.08 0.10 0.12 0.11 0.09 0.10 0.10 0.11 0.11 0.12 0.22 0.32 0.28 0.36 0.28 0.36 0.21 0.15 0.13 0.12 0.09 0.09 0.07 0.07 0.10 0.12 0.14 0.18 0.21 0.24 0.30 0.40 0.49 0.54 0.45 0.41 0.51 0.62 0.57 0.58 0.48 0.52
0.01 0.05 0.09 0.10 0.08 0.10 0.11 0.12 0.12 0.14 0.23 0.31 0.33 0.41 0.31 0.30 0.20 0.16 0.11 0.12 0.09 0.07 0.07 0.09 0.11 0.13 0.17 0.20 0.21 0.28 0.26 0.24 0.32 0.43 0.42 0.51 0.57 0.54 0.40 0.48 0.64 0.57 0.53 0.46

GFSNW_prec_precacc24_111.txt.gz
Total_Precipitation_Accumulation
0.14 0.15 0.13 0.10 0.11 0.19 0.24 0.28 0.29 0.14 0.18 0.29 0.17 0.06 0.00 0.00 0.00 0.00 0.00 0.00 0.00 0.00 0.00 0.00 0.00 0.00 0.01 0.00 0.00 0.00 0.00 0.00 0.00 0.00 0.01 0.03 0.05 0.05 0.05 0.09 0.03 0.00 0.01 0.00
0.09 0.10 0.14 0.18 0.16 0.24 0.21 0.32 0.17 0.25 0.45 0.52 0.29 0.12 0.03 0.01 0.00 0.00 0.01 0.00 0.00 0.00 0.00 0.00 0.00 0.00 0.00 0.00 0.00 0.00 0.01 0.03 0.01 0.00 0.00 0.00 0.03 0.03 0.07 0.07 0.04 0.02 0.03 0.01
0.12 0.10 0.12 0.19 0.29 0.44 0.46 0.36 0.29 0.31 0.45 0.24 0.19 0.28 0.21 0.08 0.03 0.01 0.02 0.01 0.01 0.01 0.00 0.00 0.00 0.00 0.00 0.00 0.00 0.00 0.00 0.01 0.03 0.02 0.01 0.02 0.01 0.01 0.05 0.15 0.31 0.13 0.02 0.00
0.10 0.11 0.12 0.18 0.27 0.52 0.89 0.79 0.31 0.19 0.21 0.18 0.15 0.15 0.19 0.19 0.14 0.06 0.05 0.04 0.04 0.04 0.03 0.00 0.00 0.00 0.00 0.00 0.00 0.00 0.02 0.05 0.01 0.01 0.01 0.00 0.01 0.00 0.00 0.02 0.07 0.26 0.13 0.01
0.08 0.13 0.15 0.17 0.27 0.62 0.77 0.70 0.29 0.25 0.14 0.14 0.18 0.21 0.14 0.09 0.10 0.22 0.23 0.12 0.06 0.11 0.09 0.01 0.01 0.04 0.05 0.03 0.04 0.07 0.11 0.09 0.03 0.02 0.00 0.00 0.00 0.00 0.00 0.00 0.00 0.00 0.00 0.00
0.08 0.10 0.13 0.17 0.29 0.63 0.78 0.36 0.22 0.43 0.32 0.18 0.21 0.21 0.20 0.20 0.22 0.11 0.07 0.25 0.41 0.18 0.15 0.20 0.09 0.07 0.06 0.08 0.08 0.14 0.25 0.21 0.19 0.08 0.02 0.04 0.03 0.00 0.00 0.00 0.00 0.00 0.00 0.00
0.06 0.08 0.12 0.16 0.25 0.44 0.55 0.37 0.37 0.68 0.40 0.17 0.12 0.07 0.14 0.18 0.14 0.14 0.08 0.11 0.19 0.12 0.12 0.12 0.05 0.02 0.01 0.01 0.01 0.02 0.11 0.29 0.37 0.21 0.14 0.14 0.01 0.00 0.00 0.00 0.01 0.01 0.02 0.01
0.08 0.11 0.15 0.17 0.20 0.25 0.42 0.39 0.61 0.63 0.36 0.13 0.09 0.12 0.10 0.03 0.03 0.04 0.04 0.03 0.07 0.18 0.21 0.31 0.15 0.09 0.05 0.01 0.00 0.00 0.01 0.10 0.30 0.25 0.19 0.09 0.01 0.03 0.07 0.07 0.15 0.11 0.07 0.05
0.11 0.14 0.19 0.22 0.23 0.25 0.37 0.37 0.38 0.61 0.70 0.16 0.08 0.08 0.06 0.07 0.07 0.09 0.05 0.03 0.10 0.36 0.35 0.33 0.24 0.13 0.18 0.26 0.30 0.07 0.04 0.08 0.17 0.17 0.16 0.04 0.04 0.05 0.03 0.07 0.25 0.21 0.12 0.09
0.19 0.19 0.19 0.26 0.28 0.29 0.41 0.42 0.35 0.59 0.60 0.09 0.07 0.16 0.11 0.08 0.13 0.22 0.19 0.17 0.20 0.36 0.43 0.26 0.12 0.10 0.09 0.09 0.32 0.56 0.29 0.28 0.18 0.09 0.21 0.08 0.01 0.04 0.05 0.17 0.31 0.10 0.04 0.01
0.14 0.15 0.19 0.25 0.30 0.33 0.51 0.53 0.30 0.43 0.49 0.16 0.01 0.01 0.08 0.13 0.19 0.25 0.32 0.43 0.42 0.38 0.40 0.20 0.12 0.14 0.10 0.05 0.07 0.52 0.61 0.72 0.47 0.31 0.33 0.09 0.05 0.20 0.35 0.32 0.12 0.08 0.05 0.01
0.10 0.11 0.14 0.17 0.24 0.35 0.59 0.73 0.41 0.41 0.61 0.37 0.04 0.00 0.00 0.01 0.04 0.10 0.14 0.34 0.46 0.73 0.84 0.67 0.42 0.23 0.23 0.13 0.18 0.60 0.78 0.33 0.26 0.31 0.23 0.08 0.09 0.23 0.35 0.16 0.07 0.10 0.08 0.04
0.08 0.09 0.10 0.15 0.18 0.26 0.56 0.69 0.40 0.67 1.02 0.66 0.17 0.02 0.00 0.00 0.00 0.02 0.06 0.03 0.03 0.13 0.36 0.55 0.40 0.29 0.24 0.20 0.21 0.44 0.64 0.46 0.53 0.26 0.08 0.09 0.12 0.12 0.17 0.10 0.02 0.03 0.03 0.07
0.11 0.10 0.10 0.10 0.20 0.26 0.46 0.71 0.61 0.49 0.73 0.47 0.16 0.00 0.00 0.00 0.00 0.01 0.02 0.01 0.03 0.08 0.20 0.46 0.38 0.20 0.10 0.07 0.11 0.12 0.52 0.56 0.63 0.61 0.81 0.41 0.14 0.08 0.02 0.01 0.00 0.00 0.04 0.08
0.15 0.13 0.14 0.15 0.16 0.31 0.56 0.67 0.62 0.32 0.22 0.29 0.18 0.05 0.00 0.00 0.00 0.00 0.02 0.06 0.10 0.18 0.37 0.48 0.24 0.08 0.09 0.04 0.03 0.03 0.12 0.13 0.23 0.47 0.41 0.41 0.09 0.00 0.00 0.01 0.00 0.03 0.05 0.19
0.19 0.20 0.16 0.20 0.23 0.45 1.24 1.78 1.07 0.31 0.18 0.65 0.19 0.05 0.01 0.00 0.00 0.00 0.01 0.04 0.12 0.30 0.52 0.30 0.12 0.05 0.18 0.18 0.05 0.00 0.01 0.00 0.00 0.01 0.02 0.03 0.02 0.02 0.01 0.01 0.01 0.02 0.03 0.03
0.26 0.25 0.24 0.27 0.46 0.88 1.30 0.66 0.31 0.21 0.32 1.01 0.38 0.03 0.02 0.01 0.06 0.06 0.04 0.06 0.16 0.33 0.68 0.42 0.11 0.05 0.21 0.22 0.04 0.00 0.00 0.00 0.00 0.00 0.01 0.01 0.02 0.02 0.02 0.02 0.05 0.02 0.02 0.04
0.39 0.38 0.43 0.55 1.01 1.22 0.63 0.11 0.09 0.06 0.44 0.56 0.30 0.11 0.13 0.03 0.07 0.11 0.07 0.09 0.23 0.41 0.39 0.27 0.15 0.08 0.17 0.19 0.03 0.00 0.00 0.00 0.00 0.00 0.01 0.01 0.00 0.01 0.04 0.05 0.04 0.02 0.03 0.07
0.66 0.90 1.45 2.58 2.85 1.77 0.56 0.18 0.30 0.19 0.29 0.30 0.12 0.23 0.27 0.14 0.15 0.22 0.28 0.21 0.36 0.36 0.29 0.15 0.13 0.11 0.14 0.06 0.00 0.00 0.00 0.00 0.00 0.00 0.00 0.00 0.00 0.00 0.01 0.01 0.01 0.02 0.03 0.02
1.83 3.12 3.81 3.10 1.33 0.20 0.57 1.38 1.35 1.24 0.67 0.29 0.07 0.10 0.28 0.24 0.18 0.40 0.97 0.51 0.21 0.22 0.09 0.06 0.14 0.08 0.05 0.02 0.00 0.00 0.00 0.00 0.00 0.00 0.00 0.00 0.00 0.00 0.00 0.01 0.01 0.01 0.02 0.01
2.47 2.21 1.06 0.63 0.23 0.31 0.74 0.97 0.56 0.44 0.30 0.07 0.03 0.06 0.16 0.12 0.18 0.29 0.42 0.72 0.23 0.11 0.04 0.07 0.07 0.11 0.06 0.01 0.00 0.00 0.00 0.00 0.00 0.00 0.00 0.00 0.00 0.00 0.00 0.00 0.00 0.00 0.00 0.00
0.63 0.44 0.46 0.44 0.53 0.64 0.55 0.39 0.18 0.08 0.01 0.02 0.07 0.08 0.19 0.20 0.27 0.42 0.28 0.24 0.34 0.16 0.16 0.22 0.10 0.07 0.01 0.00 0.00 0.00 0.00 0.00 0.00 0.00 0.00 0.00 0.00 0.00 0.00 0.00 0.00 0.01 0.01 0.03
0.08 0.17 0.33 0.30 0.33 0.26 0.22 0.17 0.08 0.02 0.02 0.01 0.03 0.10 0.13 0.18 0.14 0.33 0.29 0.15 0.12 0.10 0.16 0.16 0.08 0.04 0.00 0.00 0.00 0.00 0.00 0.00 0.00 0.00 0.00 0.00 0.00 0.00 0.01 0.01 0.03 0.03 0.05 0.07
0.34 0.34 0.27 0.14 0.05 0.10 0.07 0.03 0.02 0.03 0.03 0.01 0.03 0.05 0.17 0.18 0.07 0.07 0.16 0.16 0.13 0.13 0.09 0.07 0.06 0.02 0.01 0.01 0.01 0.01 0.01 0.01 0.01 0.01 0.01 0.01 0.02 0.04 0.05 0.07 0.08 0.06 0.10 0.17
0.17 0.03 0.02 0.05 0.07 0.07 0.07 0.05 0.04 0.04 0.03 0.03 0.06 0.08 0.19 0.16 0.12 0.04 0.04 0.08 0.10 0.12 0.07 0.07 0.06 0.03 0.02 0.02 0.03 0.04 0.05 0.05 0.07 0.09 0.12 0.13 0.13 0.20 0.22 0.20 0.22 0.21 0.27 0.31
0.01 0.03 0.07 0.08 0.09 0.10 0.08 0.09 0.08 0.08 0.07 0.07 0.09 0.12 0.10 0.16 0.11 0.13 0.07 0.09 0.10 0.10 0.07 0.05 0.03 0.03 0.04 0.06 0.09 0.14 0.16 0.17 0.20 0.27 0.40 0.46 0.38 0.36 0.42 0.49 0.43 0.44 0.37 0.43
0.01 0.05 0.10 0.10 0.08 0.10 0.10 0.10 0.11 0.12 0.17 0.15 0.12 0.22 0.11 0.11 0.13 0.14 0.08 0.11 0.08 0.05 0.03 0.04 0.06 0.08 0.10 0.13 0.14 0.21 0.19 0.17 0.25 0.35 0.34 0.41 0.45 0.43 0.31 0.35 0.51 0.49 0.48 0.44

GFSNW_prec_precacc24_114.txt.gz
Total_Precipitation_Accumulation
0.13 0.14 0.13 0.09 0.10 0.17 0.20 0.24 0.26 0.14 0.18 0.28 0.16 0.06 0.00 0.00 0.00 0.00 0.00 0.00 0.00 0.00 0.00 0.00 0.00 0.00 0.01 0.00 0.00 0.00 0.00 0.00 0.00 0.00 0.01 0.03 0.05 0.05 0.05 0.10 0.04 0.00 0.02 0.01
0.08 0.10 0.13 0.17 0.16 0.22 0.18 0.28 0.14 0.21 0.39 0.49 0.28 0.11 0.03 0.01 0.00 0.00 0.01 0.00 0.00 0.00 0.00 0.01 0.00 0.00 0.00 0.00 0.00 0.00 0.00 0.02 0.01 0.00 0.00 0.01 0.03 0.03 0.07 0.07 0.04 0.02 0.05 0.02
0.12 0.09 0.11 0.18 0.28 0.42 0.39 0.31 0.22 0.25 0.35 0.20 0.19 0.28 0.21 0.08 0.03 0.01 0.02 0.01 0.01 0.01 0.00 0.00 0.01 0.00 0.00 0.00 0.00 0.00 0.00 0.00 0.01 0.01 0.01 0.03 0.01 0.01 0.05 0.15 0.31 0.13 0.02 0.00
0.10 0.11 0.11 0.17 0.27 0.50 0.77 0.72 0.26 0.15 0.18 0.13 0.14 0.15 0.19 0.19 0.14 0.05 0.04 0.03 0.05 0.06 0.06 0.02 0.00 0.00 0.01 0.00 0.00 0.00 0.01 0.01 0.00 0.00 0.00 0.00 0.01 0.00 0.00 0.02 0.07 0.26 0.13 0.01
0.08 0.12 0.15 0.17 0.26 0.59 0.65 0.58 0.23 0.21 0.14 0.13 0.16 0.19 0.13 0.09 0.10 0.24 0.23 0.13 0.07 0.12 0.14 0.10 0.06 0.05 0.07 0.04 0.02 0.03 0.08 0.06 0.02 0.01 0.00 0.00 0.00 0.00 0.00 0.00 0.00 0.00 0.00 0.00
0.07 0.10 0.13 0.16 0.28 0.57 0.59 0.20 0.12 0.38 0.28 0.17 0.20 0.19 0.19 0.20 0.32 0.19 0.13 0.27 0.44 0.21 0.18 0.22 0.10 0.07 0.07 0.09 0.09 0.09 0.13 0.12 0.11 0.04 0.02 0.03 0.03 0.00 0.00 0.00 0.00 0.00 0.00 0.00
0.06 0.07 0.11 0.15 0.23 0.35 0.36 0.18 0.23 0.54 0.32 0.15 0.11 0.08 0.16 0.25 0.20 0.21 0.11 0.12 0.19 0.13 0.12 0.12 0.05 0.02 0.01 0.01 0.01 0.02 0.07 0.15 0.20 0.09 0.09 0.09 0.00 0.00 0.00 0.00 0.01 0.01 0.02 0.01
0.06 0.09 0.11 0.14 0.16 0.19 0.25 0.19 0.43 0.55 0.32 0.11 0.08 0.14 0.16 0.05 0.03 0.04 0.04 0.03 0.07 0.19 0.21 0.25 0.13 0.09 0.05 0.01 0.00 0.00 0.00 0.06 0.19 0.14 0.09 0.03 0.01 0.03 0.08 0.08 0.15 0.11 0.08 0.05
0.08 0.11 0.14 0.16 0.19 0.19 0.24 0.17 0.23 0.49 0.67 0.15 0.08 0.08 0.06 0.06 0.06 0.08 0.05 0.03 0.10 0.36 0.34 0.30 0.19 0.12 0.18 0.26 0.29 0.05 0.04 0.06 0.16 0.14 0.12 0.02 0.03 0.06 0.03 0.07 0.27 0.28 0.18 0.16
0.15 0.14 0.13 0.19 0.22 0.22 0.26 0.21 0.20 0.41 0.48 0.07 0.07 0.16 0.11 0.08 0.13 0.23 0.19 0.17 0.20 0.36 0.40 0.23 0.10 0.09 0.08 0.09 0.32 0.53 0.26 0.30 0.21 0.11 0.18 0.04 0.00 0.03 0.06 0.17 0.43 0.32 0.10 0.07
0.11 0.12 0.16 0.22 0.25 0.25 0.34 0.31 0.20 0.30 0.33 0.11 0.01 0.01 0.08 0.13 0.18 0.25 0.32 0.42 0.41 0.37 0.40 0.21 0.12 0.17 0.18 0.11 0.08 0.58 0.68 0.77 0.44 0.31 0.27 0.07 0.06 0.20 0.34 0.34 0.14 0.13 0.15 0.05
0.10 0.11 0.13 0.16 0.20 0.30 0.47 0.49 0.28 0.31 0.44 0.25 0.03 0.00 0.00 0.01 0.04 0.10 0.14 0.33 0.46 0.73 0.84 0.67 0.42 0.23 0.25 0.14 0.21 0.68 0.93 0.51 0.36 0.27 0.19 0.08 0.10 0.27 0.38 0.21 0.07 0.09 0.09 0.04
0.08 0.09 0.10 0.15 0.16 0.25 0.57 0.52 0.31 0.53 0.83 0.52 0.11 0.01 0.00 0.00 0.00 0.02 0.06 0.03 0.03 0.13 0.36 0.53 0.40 0.29 0.24 0.21 0.24 0.50 0.74 0.64 0.76 0.28 0.09 0.10 0.12 0.13 0.21 0.31 0.14 0.03 0.03 0.10
0.09 0.08 0.10 0.10 0.19 0.25 0.46 0.66 0.53 0.43 0.65 0.40 0.12 0.00 0.00 0.00 0.00 0.01 0.01 0.01 0.02 0.06 0.19 0.43 0.36 0.19 0.10 0.07 0.12 0.19 0.62 0.61 0.70 0.71 0.89 0.44 0.15 0.08 0.02 0.02 0.01 0.00 0.03 0.08
0.13 0.10 0.09 0.09 0.14 0.30 0.53 0.65 0.55 0.30 0.21 0.28 0.17 0.05 0.00 0.00 0.00 0.00 0.02 0.05 0.08 0.15 0.34 0.46 0.21 0.07 0.08 0.04 0.03 0.11 0.15 0.17 0.33 0.63 0.51 0.60 0.20 0.06 0.01 0.02 0.03 0.05 0.06 0.19
0.15 0.16 0.13 0.14 0.15 0.38 1.03 1.50 0.88 0.29 0.19 0.68 0.19 0.05 0.01 0.00 0.00 0.00 0.01 0.04 0.10 0.27 0.47 0.27 0.12 0.05 0.19 0.20 0.07 0.01 0.01 0.01 0.03 0.06 0.06 0.18 0.23 0.09 0.03 0.05 0.07 0.05 0.05 0.04
0.24 0.20 0.19 0.22 0.34 0.63 1.12 0.63 0.27 0.18 0.31 1.03 0.38 0.03 0.01 0.01 0.03 0.03 0.04 0.06 0.14 0.29 0.62 0.37 0.10 0.05 0.23 0.23 0.04 0.00 0.00 0.00 0.01 0.01 0.01 0.03 0.03 0.02 0.02 0.08 0.16 0.07 0.01 0.01
0.36 0.34 0.35 0.41 0.73 1.05 0.68 0.14 0.10 0.06 0.39 0.52 0.30 0.06 0.06 0.02 0.03 0.05 0.03 0.08 0.20 0.32 0.27 0.18 0.12 0.09 0.20 0.23 0.04 0.00 0.00 0.00 0.00 0.00 0.01 0.01 0.00 0.01 0.03 0.03 0.04 0.01 0.01 0.03
0.55 0.80 1.18 2.17 2.58 1.63 0.53 0.20 0.32 0.19 0.28 0.30 0.11 0.04 0.09 0.12 0.14 0.16 0.27 0.30 0.36 0.24 0.20 0.06 0.11 0.12 0.18 0.10 0.01 0.00 0.00 0.00 0.00 0.00 0.00 0.00 0.00 0.00 0.00 0.00 0.01 0.02 0.01 0.01
1.67 3.01 3.63 2.84 1.19 0.16 0.57 1.39 1.33 1.28 0.70 0.30 0.08 0.02 0.11 0.19 0.16 0.36 0.77 0.57 0.19 0.19 0.06 0.07 0.17 0.12 0.07 0.02 0.00 0.00 0.00 0.00 0.00 0.00 0.00 0.00 0.00 0.00 0.00 0.01 0.01 0.01 0.02 0.01
2.87 2.32 0.98 0.51 0.21 0.35 0.82 0.91 0.58 0.52 0.37 0.08 0.01 0.01 0.08 0.08 0.13 0.15 0.27 0.69 0.26 0.11 0.05 0.09 0.08 0.14 0.08 0.02 0.01 0.00 0.00 0.00 0.00 0.00 0.00 0.00 0.00 0.00 0.00 0.00 0.00 0.00 0.01 0.01
0.75 0.40 0.48 0.50 0.55 0.67 0.51 0.37 0.13 0.06 0.01 0.01 0.00 0.02 0.09 0.10 0.19 0.33 0.20 0.22 0.34 0.16 0.17 0.25 0.12 0.08 0.02 0.00 0.00 0.00 0.00 0.00 0.00 0.00 0.00 0.00 0.00 0.00 0.00 0.00 0.00 0.01 0.02 0.03
0.16 0.23 0.46 0.36 0.29 0.22 0.15 0.17 0.06 0.02 0.02 0.01 0.02 0.07 0.07 0.13 0.12 0.33 0.29 0.15 0.12 0.10 0.15 0.16 0.09 0.04 0.01 0.00 0.00 0.00 0.00 0.00 0.00 0.00 0.00 0.00 0.00 0.00 0.01 0.02 0.03 0.03 0.05 0.08
0.48 0.42 0.34 0.13 0.05 0.08 0.05 0.02 0.02 0.02 0.02 0.01 0.03 0.05 0.17 0.19 0.08 0.08 0.17 0.16 0.13 0.12 0.08 0.07 0.07 0.02 0.01 0.01 0.01 0.00 0.01 0.01 0.01 0.01 0.01 0.01 0.02 0.03 0.04 0.05 0.06 0.06 0.08 0.14
0.26 0.04 0.01 0.03 0.03 0.04 0.03 0.02 0.03 0.03 0.03 0.03 0.06 0.08 0.19 0.16 0.14 0.04 0.04 0.09 0.10 0.12 0.07 0.07 0.05 0.02 0.01 0.01 0.02 0.01 0.02 0.03 0.04 0.05 0.03 0.05 0.05 0.05 0.08 0.11 0.12 0.13 0.22 0.29
0.02 0.03 0.05 0.07 0.06 0.08 0.06 0.06 0.06 0.05 0.06 0.07 0.11 0.13 0.10 0.17 0.11 0.12 0.07 0.09 0.10 0.10 0.07 0.04 0.01 0.02 0.02 0.03 0.03 0.04 0.06 0.08 0.09 0.14 0.14 0.11 0.11 0.12 0.18 0.27 0.33 0.37 0.34 0.39
0.01 0.05 0.09 0.09 0.07 0.09 0.10 0.09 0.09 0.09 0.14 0.14 0.11 0.20 0.10 0.10 0.12 0.13 0.08 0.10 0.09 0.06 0.03 0.02 0.03 0.04 0.04 0.04 0.04 0.08 0.12 0.11 0.14 0.17 0.23 0.29 0.32 0.34 0.29 0.31 0.44 0.44 0.44 0.41

GFSNW_prec_precacc24_117.txt.gz
Total_Precipitation_Accumulation
0.10 0.12 0.11 0.07 0.07 0.14 0.16 0.23 0.23 0.13 0.17 0.26 0.15 0.05 0.00 0.00 0.00 0.00 0.00 0.00 0.00 0.00 0.00 0.00 0.00 0.00 0.01 0.00 0.00 0.00 0.00 0.00 0.00 0.00 0.01 0.03 0.05 0.06 0.05 0.10 0.04 0.00 0.02 0.01
0.05 0.09 0.13 0.16 0.13 0.17 0.18 0.26 0.13 0.20 0.35 0.47 0.27 0.11 0.03 0.01 0.00 0.00 0.01 0.01 0.00 0.00 0.00 0.01 0.00 0.00 0.00 0.00 0.00 0.00 0.00 0.01 0.00 0.01 0.02 0.01 0.03 0.03 0.07 0.07 0.04 0.02 0.05 0.02
0.09 0.07 0.10 0.17 0.24 0.37 0.36 0.28 0.19 0.21 0.27 0.17 0.19 0.29 0.20 0.08 0.03 0.01 0.02 0.01 0.01 0.01 0.00 0.00 0.01 0.00 0.00 0.00 0.00 0.00 0.01 0.00 0.01 0.02 0.03 0.03 0.01 0.01 0.05 0.15 0.31 0.13 0.02 0.00
0.07 0.09 0.09 0.15 0.23 0.43 0.70 0.67 0.23 0.14 0.17 0.10 0.12 0.14 0.18 0.19 0.14 0.05 0.04 0.04 0.06 0.08 0.09 0.02 0.00 0.00 0.01 0.00 0.00 0.00 0.02 0.01 0.00 0.00 0.00 0.00 0.01 0.00 0.00 0.02 0.07 0.26 0.13 0.01
0.06 0.10 0.14 0.16 0.24 0.51 0.58 0.53 0.20 0.20 0.14 0.13 0.15 0.14 0.10 0.09 0.10 0.26 0.24 0.16 0.08 0.12 0.14 0.16 0.17 0.12 0.08 0.04 0.02 0.02 0.03 0.03 0.02 0.01 0.00 0.00 0.00 0.00 0.00 0.00 0.00 0.00 0.00 0.00
0.07 0.09 0.12 0.15 0.27 0.50 0.54 0.17 0.09 0.34 0.26 0.17 0.19 0.18 0.19 0.20 0.36 0.21 0.21 0.41 0.40 0.22 0.21 0.22 0.12 0.09 0.08 0.10 0.09 0.09 0.11 0.08 0.06 0.03 0.02 0.02 0.00 0.00 0.00 0.00 0.00 0.00 0.00 0.00
0.06 0.07 0.10 0.14 0.22 0.31 0.34 0.16 0.20 0.47 0.26 0.14 0.11 0.08 0.16 0.28 0.23 0.25 0.10 0.10 0.16 0.12 0.11 0.10 0.05 0.02 0.01 0.01 0.01 0.02 0.07 0.13 0.15 0.07 0.08 0.08 0.00 0.00 0.00 0.00 0.01 0.01 0.02 0.01
0.06 0.09 0.11 0.14 0.17 0.16 0.21 0.17 0.33 0.43 0.26 0.09 0.07 0.14 0.16 0.05 0.02 0.02 0.02 0.02 0.06 0.16 0.18 0.17 0.10 0.09 0.05 0.01 0.00 0.00 0.00 0.05 0.18 0.12 0.07 0.01 0.00 0.02 0.07 0.08 0.15 0.11 0.08 0.05
0.07 0.10 0.13 0.16 0.19 0.18 0.18 0.13 0.17 0.37 0.51 0.11 0.07 0.08 0.06 0.06 0.05 0.06 0.03 0.02 0.08 0.27 0.25 0.24 0.16 0.11 0.17 0.26 0.29 0.05 0.04 0.06 0.16 0.13 0.11 0.02 0.02 0.04 0.02 0.06 0.27 0.28 0.21 0.19
0.10 0.10 0.09 0.17 0.20 0.19 0.17 0.09 0.13 0.31 0.33 0.03 0.07 0.15 0.10 0.07 0.13 0.21 0.18 0.16 0.18 0.32 0.29 0.18 0.09 0.09 0.08 0.11 0.37 0.56 0.32 0.41 0.28 0.14 0.26 0.04 0.00 0.03 0.04 0.16 0.41 0.38 0.40 0.22
0.05 0.07 0.11 0.15 0.19 0.19 0.20 0.09 0.12 0.21 0.16 0.04 0.00 0.01 0.08 0.13 0.18 0.23 0.31 0.35 0.38 0.32 0.31 0.17 0.12 0.18 0.20 0.20 0.12 0.69 0.78 0.68 0.34 0.29 0.25 0.06 0.06 0.23 0.30 0.23 0.16 0.26 0.40 0.20
0.06 0.06 0.08 0.10 0.14 0.22 0.33 0.25 0.13 0.22 0.27 0.12 0.02 0.00 0.00 0.01 0.04 0.10 0.13 0.30 0.46 0.71 0.83 0.67 0.42 0.24 0.25 0.16 0.25 0.78 1.05 0.72 0.47 0.14 0.07 0.04 0.09 0.27 0.38 0.22 0.15 0.14 0.07 0.05
0.09 0.10 0.10 0.12 0.11 0.19 0.43 0.31 0.17 0.39 0.57 0.32 0.06 0.01 0.00 0.00 0.00 0.02 0.06 0.03 0.03 0.12 0.36 0.52 0.35 0.28 0.24 0.22 0.25 0.53 0.78 0.72 0.95 0.35 0.11 0.09 0.12 0.14 0.21 0.33 0.25 0.04 0.02 0.09
0.08 0.09 0.10 0.10 0.18 0.23 0.37 0.46 0.33 0.30 0.50 0.30 0.06 0.00 0.00 0.00 0.00 0.01 0.01 0.01 0.02 0.05 0.16 0.40 0.30 0.14 0.07 0.06 0.12 0.23 0.67 0.64 0.76 0.86 1.02 0.59 0.22 0.13 0.03 0.02 0.01 0.02 0.04 0.08
0.10 0.10 0.08 0.10 0.14 0.30 0.50 0.50 0.42 0.18 0.18 0.22 0.14 0.05 0.00 0.00 0.00 0.00 0.02 0.05 0.06 0.12 0.29 0.38 0.18 0.07 0.09 0.04 0.03 0.16 0.17 0.21 0.49 0.81 0.82 0.96 0.54 0.49 0.17 0.07 0.05 0.09 0.07 0.19
0.15 0.13 0.11 0.11 0.14 0.36 0.91 1.30 0.76 0.24 0.15 0.61 0.17 0.05 0.01 0.00 0.00 0.00 0.01 0.04 0.09 0.21 0.37 0.22 0.11 0.05 0.20 0.23 0.08 0.01 0.01 0.05 0.21 0.21 0.35 0.46 0.62 0.35 0.11 0.12 0.23 0.15 0.06 0.06
0.24 0.19 0.15 0.17 0.25 0.51 0.94 0.54 0.23 0.18 0.30 1.01 0.36 0.03 0.01 0.01 0.03 0.03 0.04 0.06 0.13 0.25 0.43 0.21 0.06 0.05 0.26 0.25 0.04 0.00 0.00 0.00 0.04 0.02 0.02 0.04 0.03 0.03 0.03 0.08 0.18 0.10 0.02 0.00
0.37 0.33 0.30 0.39 0.56 0.85 0.63 0.13 0.12 0.08 0.37 0.48 0.29 0.06 0.06 0.01 0.03 0.05 0.03 0.07 0.21 0.32 0.24 0.15 0.09 0.10 0.23 0.24 0.04 0.00 0.00 0.00 0.00 0.00 0.01 0.02 0.01 0.01 0.03 0.03 0.04 0.00 0.01 0.01
0.52 0.76 1.01 1.79 2.14 1.33 0.43 0.19 0.36 0.28 0.29 0.27 0.10 0.04 0.08 0.04 0.13 0.15 0.24 0.35 0.37 0.24 0.20 0.06 0.13 0.13 0.21 0.11 0.02 0.00 0.00 0.00 0.00 0.00 0.00 0.00 0.00 0.00 0.00 0.00 0.00 0.01 0.01 0.00
1.53 2.64 3.08 2.34 0.96 0.11 0.51 1.37 1.33 1.33 0.74 0.31 0.08 0.02 0.10 0.09 0.15 0.42 0.58 0.55 0.25 0.16 0.07 0.09 0.17 0.14 0.08 0.03 0.01 0.01 0.01 0.00 0.00 0.00 0.00 0.00 0.00 0.00 0.00 0.01 0.00 0.01 0.01 0.01
2.62 2.12 0.80 0.32 0.16 0.32 0.82 0.93 0.60 0.52 0.37 0.08 0.01 0.01 0.08 0.06 0.08 0.12 0.21 0.47 0.27 0.11 0.04 0.13 0.10 0.16 0.09 0.03 0.02 0.00 0.00 0.00 0.00 0.00 0.00 0.00 0.01 0.00 0.00 0.00 0.00 0.01 0.01 0.01
0.72 0.35 0.43 0.52 0.60 0.71 0.53 0.38 0.13 0.06 0.01 0.01 0.00 0.02 0.09 0.08 0.12 0.14 0.10 0.13 0.23 0.15 0.17 0.27 0.13 0.09 0.03 0.00 0.01 0.00 0.00 0.00 0.00 0.00 0.00 0.00 0.00 0.00 0.00 0.00 0.01 0.01 0.02 0.04
0.35 0.39 0.59 0.52 0.36 0.26 0.16 0.17 0.05 0.01 0.02 0.01 0.02 0.06 0.03 0.04 0.05 0.08 0.14 0.10 0.07 0.09 0.14 0.16 0.09 0.05 0.01 0.00 0.00 0.00 0.00 0.00 0.00 0.00 0.00 0.00 0.00 0.00 0.01 0.02 0.03 0.04 0.05 0.08
0.79 0.54 0.43 0.16 0.05 0.07 0.04 0.02 0.01 0.01 0.01 0.01 0.02 0.04 0.10 0.10 0.04 0.07 0.17 0.15 0.13 0.12 0.08 0.07 0.07 0.03 0.01 0.01 0.01 0.00 0.00 0.01 0.01 0.01 0.00 0.01 0.01 0.02 0.03 0.04 0.06 0.06 0.07 0.12
0.52 0.05 0.01 0.03 0.02 0.02 0.02 0.01 0.01 0.01 0.01 0.03 0.06 0.08 0.19 0.16 0.14 0.06 0.05 0.08 0.10 0.12 0.07 0.07 0.05 0.01 0.01 0.00 0.01 0.01 0.01 0.01 0.02 0.02 0.02 0.03 0.04 0.04 0.07 0.10 0.10 0.09 0.12 0.15
0.12 0.02 0.04 0.06 0.04 0.06 0.05 0.04 0.03 0.02 0.03 0.05 0.11 0.14 0.11 0.18 0.12 0.13 0.06 0.08 0.10 0.09 0.07 0.04 0.01 0.01 0.01 0.01 0.01 0.02 0.02 0.02 0.03 0.04 0.05 0.05 0.06 0.07 0.11 0.13 0.16 0.22 0.22 0.28
0.03 0.05 0.08 0.08 0.06 0.08 0.08 0.07 0.07 0.06 0.11 0.13 0.12 0.20 0.10 0.10 0.12 0.12 0.07 0.10 0.08 0.06 0.03 0.02 0.02 0.03 0.02 0.02 0.01 0.02 0.03 0.03 0.03 0.04 0.09 0.13 0.12 0.11 0.12 0.18 0.29 0.29 0.32 0.34

GFSNW_prec_precacc24_123.txt.gz
Total_Precipitation_Accumulation
0.02 0.01 0.02 0.01 0.02 0.06 0.06 0.12 0.15 0.09 0.14 0.21 0.13 0.05 0.00 0.00 0.00 0.00 0.00 0.00 0.00 0.00 0.00 0.00 0.00 0.00 0.01 0.00 0.00 0.00 0.00 0.01 0.01 0.00 0.01 0.04 0.08 0.18 0.32 0.30 0.11 0.02 0.02 0.02
0.01 0.01 0.02 0.03 0.03 0.08 0.11 0.13 0.05 0.15 0.21 0.42 0.25 0.11 0.03 0.01 0.00 0.00 0.01 0.01 0.01 0.00 0.00 0.02 0.00 0.00 0.00 0.00 0.00 0.02 0.02 0.03 0.03 0.01 0.04 0.05 0.06 0.04 0.14 0.20 0.19 0.15 0.11 0.05
0.03 0.02 0.02 0.04 0.06 0.12 0.20 0.18 0.10 0.11 0.14 0.10 0.16 0.27 0.19 0.07 0.03 0.01 0.02 0.01 0.02 0.04 0.04 0.05 0.04 0.01 0.01 0.00 0.00 0.01 0.04 0.01 0.04 0.04 0.07 0.08 0.03 0.02 0.06 0.15 0.32 0.17 0.09 0.03
0.02 0.02 0.02 0.03 0.06 0.19 0.38 0.46 0.15 0.08 0.12 0.06 0.06 0.09 0.16 0.18 0.13 0.04 0.03 0.05 0.11 0.17 0.17 0.08 0.07 0.06 0.04 0.01 0.00 0.00 0.04 0.04 0.01 0.00 0.00 0.01 0.01 0.00 0.00 0.02 0.07 0.26 0.13 0.02
0.03 0.03 0.04 0.06 0.12 0.27 0.33 0.39 0.15 0.14 0.10 0.10 0.12 0.09 0.05 0.06 0.09 0.24 0.23 0.18 0.12 0.13 0.22 0.35 0.24 0.16 0.12 0.09 0.06 0.05 0.04 0.06 0.03 0.00 0.00 0.00 0.00 0.00 0.00 0.00 0.00 0.00 0.00 0.00
0.04 0.04 0.04 0.06 0.16 0.28 0.27 0.09 0.04 0.25 0.20 0.13 0.14 0.14 0.16 0.17 0.33 0.20 0.21 0.46 0.41 0.17 0.16 0.12 0.05 0.05 0.07 0.06 0.09 0.14 0.14 0.13 0.09 0.05 0.00 0.00 0.00 0.00 0.00 0.00 0.00 0.00 0.00 0.00
0.05 0.04 0.06 0.10 0.18 0.16 0.21 0.11 0.15 0.36 0.18 0.10 0.09 0.06 0.14 0.26 0.21 0.22 0.06 0.07 0.13 0.08 0.04 0.02 0.00 0.00 0.01 0.00 0.02 0.07 0.12 0.18 0.18 0.10 0.09 0.07 0.00 0.00 0.00 0.00 0.01 0.01 0.02 0.01
0.04 0.07 0.08 0.10 0.16 0.12 0.09 0.11 0.24 0.33 0.21 0.07 0.05 0.12 0.15 0.04 0.02 0.02 0.01 0.01 0.04 0.06 0.06 0.02 0.02 0.03 0.03 0.00 0.00 0.00 0.01 0.06 0.17 0.15 0.09 0.03 0.00 0.02 0.07 0.07 0.15 0.11 0.07 0.04
0.05 0.07 0.11 0.14 0.18 0.16 0.09 0.06 0.10 0.27 0.37 0.06 0.07 0.08 0.05 0.05 0.03 0.03 0.01 0.02 0.04 0.11 0.05 0.10 0.11 0.10 0.16 0.25 0.24 0.06 0.08 0.09 0.14 0.12 0.16 0.04 0.03 0.04 0.02 0.07 0.27 0.26 0.19 0.17
0.06 0.07 0.08 0.15 0.19 0.16 0.10 0.04 0.09 0.21 0.26 0.01 0.01 0.04 0.05 0.07 0.10 0.13 0.13 0.12 0.12 0.17 0.07 0.08 0.07 0.07 0.09 0.14 0.45 0.57 0.38 0.53 0.41 0.19 0.38 0.08 0.03 0.03 0.03 0.14 0.46 0.43 0.50 0.67
0.03 0.04 0.07 0.11 0.15 0.17 0.11 0.03 0.07 0.16 0.13 0.02 0.00 0.00 0.03 0.03 0.05 0.10 0.17 0.18 0.30 0.23 0.19 0.12 0.09 0.17 0.21 0.25 0.21 0.78 0.91 0.76 0.50 0.46 0.37 0.25 0.09 0.18 0.32 0.26 0.20 0.35 0.86 0.95
0.04 0.02 0.03 0.06 0.07 0.15 0.20 0.05 0.03 0.16 0.19 0.04 0.00 0.00 0.00 0.00 0.01 0.04 0.07 0.23 0.38 0.58 0.75 0.59 0.39 0.25 0.26 0.20 0.31 0.84 1.19 0.96 0.79 0.29 0.21 0.16 0.10 0.23 0.33 0.21 0.25 0.34 0.21 0.30
0.06 0.06 0.05 0.04 0.02 0.11 0.25 0.09 0.05 0.25 0.30 0.05 0.00 0.00 0.00 0.00 0.00 0.00 0.01 0.01 0.02 0.08 0.33 0.46 0.31 0.24 0.23 0.22 0.29 0.56 0.83 0.82 1.28 0.72 0.41 0.27 0.18 0.14 0.23 0.37 0.32 0.08 0.08 0.06
0.06 0.07 0.08 0.06 0.07 0.12 0.18 0.18 0.09 0.16 0.20 0.11 0.00 0.00 0.00 0.00 0.00 0.00 0.00 0.00 0.00 0.03 0.10 0.27 0.22 0.09 0.04 0.05 0.13 0.24 0.79 0.72 0.82 1.15 1.35 0.82 0.42 0.39 0.30 0.20 0.15 0.22 0.08 0.02
0.07 0.08 0.08 0.07 0.09 0.19 0.28 0.19 0.11 0.09 0.10 0.12 0.10 0.03 0.00 0.00 0.00 0.00 0.00 0.00 0.01 0.04 0.14 0.22 0.15 0.04 0.08 0.03 0.02 0.27 0.23 0.30 0.61 1.00 1.09 1.21 0.82 0.90 0.55 0.31 0.13 0.13 0.04 0.03
0.14 0.11 0.10 0.09 0.14 0.29 0.47 0.53 0.22 0.10 0.09 0.37 0.11 0.02 0.01 0.00 0.00 0.00 0.00 0.01 0.03 0.07 0.14 0.11 0.06 0.03 0.17 0.20 0.08 0.05 0.01 0.12 0.32 0.27 0.43 0.59 0.71 0.40 0.14 0.14 0.25 0.14 0.04 0.03
0.24 0.19 0.14 0.14 0.22 0.39 0.56 0.36 0.11 0.03 0.15 0.73 0.22 0.01 0.01 0.01 0.02 0.02 0.03 0.03 0.05 0.10 0.19 0.11 0.02 0.03 0.24 0.21 0.03 0.01 0.00 0.02 0.05 0.02 0.02 0.04 0.04 0.04 0.03 0.08 0.18 0.09 0.01 0.00
0.35 0.32 0.25 0.25 0.35 0.66 0.42 0.11 0.11 0.08 0.27 0.32 0.19 0.04 0.04 0.01 0.05 0.07 0.02 0.07 0.17 0.25 0.16 0.11 0.06 0.09 0.20 0.19 0.05 0.00 0.00 0.00 0.01 0.00 0.02 0.03 0.01 0.02 0.04 0.03 0.04 0.00 0.00 0.00
0.48 0.64 0.68 1.10 1.33 1.00 0.26 0.15 0.30 0.32 0.28 0.22 0.08 0.02 0.06 0.04 0.17 0.20 0.30 0.41 0.38 0.21 0.19 0.05 0.15 0.15 0.24 0.12 0.02 0.01 0.00 0.00 0.00 0.00 0.00 0.00 0.00 0.00 0.01 0.01 0.00 0.00 0.00 0.00
1.36 1.88 1.76 1.38 0.54 0.08 0.31 0.95 1.11 1.25 0.77 0.34 0.09 0.01 0.07 0.07 0.15 0.42 0.53 0.57 0.29 0.21 0.08 0.10 0.16 0.16 0.10 0.04 0.02 0.01 0.01 0.00 0.00 0.00 0.00 0.00 0.00 0.00 0.00 0.01 0.00 0.00 0.00 0.01
2.14 1.31 0.46 0.20 0.12 0.26 0.64 0.71 0.52 0.44 0.36 0.08 0.01 0.00 0.05 0.05 0.05 0.08 0.13 0.25 0.30 0.17 0.09 0.17 0.17 0.21 0.10 0.03 0.03 0.01 0.00 0.00 0.00 0.00 0.00 0.00 0.01 0.00 0.00 0.00 0.00 0.00 0.01 0.01
0.45 0.20 0.34 0.53 0.46 0.54 0.45 0.35 0.15 0.07 0.01 0.01 0.00 0.01 0.05 0.07 0.08 0.08 0.09 0.11 0.12 0.09 0.16 0.27 0.16 0.10 0.04 0.00 0.01 0.00 0.00 0.00 0.00 0.00 0.00 0.00 0.00 0.00 0.00 0.00 0.01 0.01 0.02 0.03
0.41 0.57 0.55 0.62 0.38 0.30 0.15 0.16 0.06 0.01 0.01 0.00 0.01 0.04 0.02 0.04 0.05 0.06 0.06 0.08 0.05 0.06 0.08 0.13 0.10 0.05 0.01 0.00 0.00 0.00 0.00 0.00 0.00 0.00 0.00 0.00 0.00 0.00 0.01 0.01 0.02 0.03 0.04 0.06
0.94 0.81 0.53 0.23 0.12 0.06 0.02 0.01 0.00 0.00 0.00 0.00 0.01 0.02 0.06 0.08 0.04 0.05 0.06 0.05 0.05 0.06 0.05 0.07 0.07 0.02 0.00 0.00 0.00 0.00 0.00 0.00 0.00 0.00 0.00 0.00 0.01 0.02 0.02 0.03 0.04 0.04 0.05 0.09
0.81 0.31 0.13 0.03 0.02 0.02 0.01 0.00 0.00 0.00 0.00 0.01 0.02 0.03 0.05 0.06 0.10 0.05 0.04 0.07 0.06 0.09 0.07 0.07 0.05 0.01 0.00 0.00 0.00 0.00 0.00 0.00 0.00 0.00 0.00 0.01 0.01 0.02 0.03 0.05 0.05 0.05 0.06 0.09
0.34 0.17 0.10 0.06 0.02 0.04 0.03 0.03 0.02 0.01 0.01 0.04 0.09 0.07 0.04 0.09 0.06 0.11 0.06 0.07 0.08 0.09 0.06 0.04 0.00 0.00 0.00 0.01 0.00 0.00 0.00 0.00 0.01 0.01 0.01 0.01 0.02 0.02 0.04 0.05 0.06 0.08 0.07 0.09
0.15 0.08 0.08 0.07 0.05 0.07 0.07 0.05 0.05 0.03 0.04 0.08 0.09 0.14 0.09 0.10 0.11 0.12 0.07 0.09 0.07 0.05 0.03 0.01 0.01 0.01 0.01 0.01 0.00 0.00 0.01 0.01 0.01 0.00 0.01 0.01 0.03 0.02 0.02 0.05 0.10 0.10 0.11 0.11